TimeMST,TemperatureF,Dew PointF,Humidity,Sea Level PressureIn,VisibilityMPH,Wind Direction,Wind SpeedMPH,Gust SpeedMPH,PrecipitationIn,Events,Conditions,WindDirDegrees,DateUTC
12:53 AM,33.1,19.0,56,29.75,10.0,SSW,5.8,-,N/A,,Clear,210,2013-03-07 07:53:00
1:53 AM,37.0,19.0,48,29.75,10.0,WSW,10.4,17.3,N/A,,Clear,240,2013-03-07 08:53:00
2:53 AM,39.9,19.0,43,29.74,10.0,West,8.1,-,N/A,,Clear,260,2013-03-07 09:53:00
3:53 AM,39.0,18.0,43,29.78,10.0,WSW,4.6,-,N/A,,Clear,240,2013-03-07 10:53:00
4:53 AM,39.0,18.0,43,29.82,10.0,Calm,Calm,-,N/A,,Clear,0,2013-03-07 11:53:00
5:53 AM,33.1,18.0,54,29.86,10.0,WSW,3.5,-,N/A,,Clear,250,2013-03-07 12:53:00
6:53 AM,36.0,19.0,50,29.90,10.0,WSW,4.6,-,N/A,,Clear,250,2013-03-07 13:53:00
7:53 AM,39.0,19.9,46,29.90,10.0,SW,5.8,-,N/A,,Clear,230,2013-03-07 14:53:00
8:53 AM,45.0,21.9,40,29.89,10.0,West,15.0,20.7,N/A,,Clear,270,2013-03-07 15:53:00
9:53 AM,46.9,23.0,39,29.89,10.0,WSW,8.1,17.3,N/A,,Clear,240,2013-03-07 16:53:00
10:53 AM,50.0,23.0,35,29.89,10.0,SSW,8.1,-,N/A,,Clear,200,2013-03-07 17:53:00
11:53 AM,50.0,24.1,36,29.91,10.0,WSW,11.5,-,N/A,,Clear,250,2013-03-07 18:53:00
12:53 PM,50.0,25.0,38,29.92,10.0,SSW,8.1,-,N/A,,Clear,200,2013-03-07 19:53:00
1:53 PM,52.0,21.0,30,29.88,10.0,Variable,6.9,-,N/A,,Partly Cloudy,0,2013-03-07 20:53:00
2:53 PM,52.0,17.1,25,29.88,10.0,WSW,6.9,-,N/A,,Overcast,240,2013-03-07 21:53:00
3:53 PM,48.0,21.9,36,29.90,10.0,East,9.2,-,N/A,,Clear,80,2013-03-07 22:53:00
4:53 PM,42.1,19.9,41,29.96,10.0,East,8.1,-,N/A,,Mostly Cloudy,90,2013-03-07 23:53:00
5:53 PM,37.9,19.0,47,30.02,10.0,ENE,8.1,-,N/A,,Scattered Clouds,60,2013-03-08 00:53:00
6:53 PM,34.0,18.0,52,30.05,10.0,NE,8.1,-,N/A,,Clear,50,2013-03-08 01:53:00
7:53 PM,33.1,19.0,56,30.05,10.0,ENE,11.5,-,N/A,,Clear,60,2013-03-08 02:53:00
8:53 PM,32.0,21.9,66,30.06,10.0,ENE,10.4,-,N/A,,Overcast,60,2013-03-08 03:53:00
9:53 PM,30.9,23.0,72,30.06,10.0,NE,10.4,-,N/A,,Overcast,50,2013-03-08 04:53:00
10:53 PM,30.9,23.0,72,30.04,10.0,NE,6.9,-,N/A,,Overcast,40,2013-03-08 05:53:00
11:53 PM,30.0,23.0,75,30.04,10.0,ENE,5.8,-,N/A,,Overcast,60,2013-03-08 06:53:00